Regional Weather Roundup
Issued by NWS

Home | Current Version | Previous Version | Graphics & Text | Print | Product List | Glossary On
Versions: 1 2 3 4 5 6 7 8 9 10 11 12 13 14 15 16 17 18 19 20 21 22 23 24 25 26 27 28 29 30 31 32 33 34 35 36 37 38 39 40 41 42 43 44 45 46 47 48 49 50
000
ASUS43 KMPX 280601
RWRMN
WEATHER ROUNDUP FOR MINNESOTA
NATIONAL WEATHER SERVICE TWIN CITIES/CHANHASSEN MN
100 AM CDT SUN AUG 28 2016


NOTE: "FAIR" INDICATES FEW OR NO CLOUDS BELOW 12,000 FEET WITH NO
SIGNIFICANT WEATHER AND/OR OBSTRUCTIONS TO VISIBILITY. N/A MEANS
CURRENT SKY AND/OR WEATHER CONDITIONS ARE NOT AVAILABLE.

MNZ060>063-068>070-280700-
   Twin Cities Metro

CITY           SKY/WX    TMP DP  RH WIND       PRES   REMARKS
TWIN CITIES    MOCLDY    63  60  90 S5        30.08S
6HR MIN TEMP:  63; 6HR MAX TEMP:  69;

ST PAUL        FOG       62  62 100 SE5       30.09R VSB 1/2
CRYSTAL        FAIR      56  54  93 CALM      30.07R FOG
BLAINE         FOG       61  61 100 CALM      30.08S VSB 1/4
LAKEVILLE      FOG       55  55 100 CALM      30.09S VSB 1/4
EDEN PRAIRIE   FAIR      62  60  93 SE3       30.08R
6HR MIN TEMP:  62; 6HR MAX TEMP:  69;

LAKEVILLE      FOG       55  55 100 CALM      30.09S VSB 1/4
SOUTH ST PAUL  FOG       63  62  98 S3        30.09R VSB 1/4
LAKE ELMO      FOG       59  59 100 CALM      30.09S VSB<1/4
$$
MNZ001>005-007-008-013>017-022>024-027-028-280700-
   Northwest Minnesota

CITY           SKY/WX    TMP DP  RH WIND       PRES   REMARKS
BEMIDJI        FAIR      57  56  97 SE6       30.04R
HALLOCK        FAIR      54  54 100 SE8       29.97R
ROSEAU         FAIR      52  48  87 CALM      30.00R
WARROAD        FAIR      54  50  87 S3        30.01R
THIEF RVR FALL FAIR      53  53 100 SE5       30.01R
CROOKSTON      FAIR      55  54  94 SE6       30.00R
FOSSTON        FAIR      54  54 100 SE5       30.02R
DETROIT LAKES  FAIR      59  57  94 S7        30.04R
MOORHEAD       FAIR      61  57  88 S9        30.00S
PARK RAPIDS    FAIR      58  56  93 SE7       30.05R
MAHNOMEN       FAIR      58  57  94 S6        30.02R
$$
MNZ006-009>011-018-025>026-280700-
   North Central Minnesota

CITY           SKY/WX    TMP DP  RH WIND       PRES   REMARKS
BAUDETTE       FAIR      53  51  93 SE6       30.01S
FLAG ISLAND    FAIR      63  59  88 CALM      29.98F FOG
INTL FALLS     FAIR      53  51  93 CALM      30.04R
6HR MIN TEMP:  53; 6HR MAX TEMP:  56; 6HR PCP:  0.10;

WASKISH        CLOUDY    55  54  94 SE5       30.02S FOG
BIG FORK       FAIR      54  52  94 CALM      30.06R
LONGVILLE      MOCLDY    57  57 100 SE3       30.06S
GRAND RAPIDS   CLOUDY    55  54  96 CALM      30.09S
CRANE LAKE     FAIR      46  46 100 S1        30.07R
ORR            FAIR      52  48  87 CALM      30.04S
COOK           FOG       48  46  93 CALM      30.08R VSB 3/4
WALKER         MOCLDY    58  57  96 S6        30.05S
$$
MNZ012-019>021-037-280700-
   Northeast Minnesota

CITY           SKY/WX    TMP DP  RH WIND       PRES   REMARKS
DULUTH         FAIR      57  56  96 SW3       30.08R
6HR MIN TEMP:  57; 6HR MAX TEMP:  61; 6HR PCP:  0.28;

ELY            FOG       52  50  93 CALM      30.07R VSB 3/4
HIBBING        CLOUDY    50  50 100 E3        30.08S
EVELETH        FOG       50  49  97 CALM      30.10R VSB 1
DULUTH HARBOR  FAIR      61  59  94 SW3       30.07S
TWO HARBORS    CLOUDY    63  57  82 CALM      30.05S
SILVER BAY     CLOUDY    61  59  94 CALM      30.05S
G MARAIS ARPRT CLOUDY    55  52  88 CALM      30.08S
$$
MNZ029>031-032-039>041-046>048-054>057-064-280700-
   West Central Minnesota

CITY           SKY/WX    TMP DP  RH WIND       PRES   REMARKS
FERGUS FALLS   FAIR      61  61 100 SE8       30.03S
WHEATON        FAIR      63  61  94 SE9       30.03R
MORRIS         FAIR      59  57  94 CALM      30.03S
ALEXANDRIA     FOG       58  58 100 SE8       30.07R VSB 1/4
ELBOW LAKE     FAIR      59  58  96 E7        30.03S
WADENA         FAIR      57  55  94 SE5       30.04S
GLENWOOD       FOG       57  57 100 SE3       30.07S VSB<1/4
APPLETON       FAIR      63  59  88 SE8       30.03S
BENSON         FAIR      61  57  88 S7        30.05R
ORTONVILLE     FAIR      61  57  88 SE7       30.03R
MADISON        FAIR      61  61 100 SE7       30.03F
WILLMAR        FAIR      61  59  94 SE5       30.07S
$$
MNZ033>034-036-042>043-049>051-058-059-280700-
   Central Minnesota

CITY           SKY/WX    TMP DP  RH WIND       PRES   REMARKS
ST CLOUD       FOG       60  60 100 CALM      30.07R VSB 1/4
6HR MIN TEMP:  58; 6HR MAX TEMP:  64;

SAUK CENTRE    FOG       59  59 100 SE6       30.07S VSB 1/4
PAYNESVILLE    FOG       60  60 100 SE6       30.08R VSB 1/2
AITKIN         CLOUDY    61  55  82 CALM      30.07R
PINE RIVER     MOCLDY    61  61 100 S5        30.09S
BRAINERD       CLOUDY    60  59  96 SE5       30.08R
STAPLES        CLOUDY    59  57  94 SE7       30.06R FOG
LONG PRAIRIE   FOG       59  59 100 CALM      30.07R VSB 1/2
LITTLE FALLS   FOG       59  57  94 SE3       30.08R VSB 1/2
LITCHFIELD     DRZL/FOG  63  61  94 CALM      30.08R VSB 1/4
BUFFALO        FOG       58  57  96 CALM      30.08S VSB 3/4
MAPLE LAKE     FOG       62  61  98 CALM      30.08S VSB 1/4
HUTCHINSON     FAIR      60  60  99 E3        30.08S
$$
MNZ037-044-045-052-053-280700-
   East Central Minnesota

CITY           SKY/WX    TMP DP  RH WIND       PRES   REMARKS
PRINCETON        N/A     63  61  94 CALM      30.08S FOG
MORA           CLOUDY    59  57  94 CALM      30.10S FOG
CAMBRIDGE      FOG       63  61  94 CALM      30.07R VSB 1/2
RUSH CITY      RAIN      61  60  97 CALM      30.09R
MOOSE LAKE     CLOUDY    61  59  94 CALM      30.07R
HINCKLEY       CLOUDY    61  61 100 CALM      30.09S
CLOQUET        CLOUDY    57  55  94 CALM      30.08S
MCGREGOR       CLOUDY    59  59 100 S5        30.08S
$$
MNZ071>073-080-081-089-090-097-098-280700-
   Southwest Minnesota

CITY           SKY/WX    TMP DP  RH WIND       PRES   REMARKS
MONTEVIDEO     FAIR      61  61 100 S7        30.07R
GRANITE FALLS  FAIR      62  60  94 SE6       30.07R
CANBY          FAIR      62  60  92 E6        30.04S
MARSHALL       FAIR      61  60  97 SE7       30.06S
REDWOOD FALLS  FAIR      61  59  93 SE6       30.06R
OLIVIA         FAIR      61  59  94 SE5       30.06S
PIPESTONE      FAIR      63  61  94 SE6       30.07R
WINDOM         FAIR      63  61  94 S5        30.09S
WORTHINGTON    FAIR      59  58  96 E5        30.09S FOG
JACKSON          N/A     61  59  94 SE3       30.10S FOG
TRACY          FAIR      65  63  91 S10       30.07S
SLAYTON        FAIR      57  57 100 SE5       30.09S
$$
MNZ065>067-074>077-082>085-091>093-280700-
   South Central Minnesota

CITY           SKY/WX    TMP DP  RH WIND       PRES   REMARKS
MANKATO        FAIR      63  59  88 SE7       30.09S
NEW ULM          N/A     61  59  94 SE5       30.08R
ST JAMES       FAIR      57  55  94 SE5       30.09S FOG
FAIRMONT       FOG       59  58  96 CALM      30.09S VSB 1
GLENCOE        FAIR      64  64 100 SE3       30.08R
FARIBAULT      FOG       57  55  94 CALM      30.10S VSB 1/2
OWATONNA       MOCLDY    64  63  94 SE3       30.10R
WASECA         CLOUDY    63  61  94 E5        30.11R
ALBERT LEA       N/A     63  61  94 CALM      30.10S FOG
$$
MNZ078>079-086>088-094>096-280700-
   Southeast Minnesota

CITY           SKY/WX    TMP DP  RH WIND       PRES   REMARKS
ROCHESTER      FOG       63  63 100 S5        30.12R VSB 1/2
6HR MIN TEMP:  63; 6HR MAX TEMP:  71;

RED WING       FOG       61  61 100 CALM      30.08S VSB 1/4
DODGE CENTER   CLOUDY    64  63  94 CALM      30.12R FOG
WINONA         CLOUDY    63  63 100 CALM      30.11R
AUSTIN         FAIR      63  61  94 CALM      30.11R FOG
PRESTON        FAIR      64  62  95 SW3       30.13R FOG
$$
ABBREVIATIONS USED IN REMARKS
   TC - TEMPERATURES IN CELSIUS
  WCI - WIND CHILL INDEX
   HX - HEAT INDEX
  VSB - VISIBILITY
$$




USA.gov is the U.S. government's official web portal to all federal, state and local government web resources and services.